GFSWCAN_250_rhum_153.txt.gz
RH
2 2 2 2 2 2 2 2 2 2 2 3 4 4 4 4 4 5 7 8 9 10 9 10 10 14 14 15 16 17 17 17 16 21 24 22 22 23 24 28 30 39 39 58 72 67 78 96 97 92 89 92 93 98
2 2 2 2 2 2 2 2 2 2 2 2 3 4 4 4 4 5 6 7 8 6 7 6 10 13 16 13 16 19 16 17 19 20 21 23 25 27 29 39 43 39 62 60 71 82 97 100 97 85 77 85 98 100
2 2 2 2 2 2 2 2 2 2 2 2 3 3 4 4 5 5 6 6 6 6 6 6 8 13 13 13 16 15 14 17 18 21 22 24 25 26 26 33 27 35 49 57 90 99 99 81 76 81 91 99 89 91
2 2 2 2 2 2 2 2 2 2 2 2 3 3 3 4 5 5 6 6 6 6 7 6 9 14 14 14 14 14 16 16 18 21 21 21 22 23 24 35 43 74 90 90 84 96 95 78 82 94 98 96 88 94
2 2 2 2 2 2 2 2 2 2 2 2 2 3 3 4 4 5 7 7 8 7 6 7 12 13 12 11 13 14 15 14 14 17 18 19 21 20 33 43 72 94 95 87 91 92 88 68 72 93 94 100 94 89
2 2 2 2 2 2 2 2 2 2 2 2 2 3 4 4 4 5 6 6 6 6 8 11 11 10 10 11 14 14 14 13 14 16 16 16 20 26 34 54 93 88 88 94 84 82 70 83 79 78 81 95 97 72
2 2 2 2 2 2 2 2 2 2 2 3 3 4 4 4 5 5 6 7 8 9 11 12 10 11 10 11 12 12 12 12 13 14 17 22 23 27 43 70 88 88 90 76 76 71 84 92 96 92 86 81 74 50
2 2 2 2 2 2 2 2 2 2 2 3 3 4 4 5 5 5 6 6 8 11 11 9 9 9 11 12 11 11 12 12 14 14 16 20 22 28 61 100 100 82 72 62 53 71 90 70 72 72 54 66 60 56
2 2 2 2 2 2 2 2 2 3 3 3 3 4 4 5 5 6 8 8 9 12 9 10 10 10 11 11 11 10 10 12 12 15 20 16 20 30 95 95 69 63 50 42 45 48 53 59 57 51 54 57 51 46
2 2 2 2 2 2 2 3 3 3 3 4 4 5 6 6 7 7 8 8 7 8 9 8 9 9 10 13 13 12 11 11 14 15 15 19 27 35 34 62 84 67 51 47 52 53 52 56 46 59 48 63 43 40
3 3 3 3 3 3 3 3 3 3 4 4 4 5 6 7 7 8 9 10 11 10 10 10 10 9 10 10 9 11 11 11 14 15 15 20 41 20 28 37 42 43 37 40 44 45 40 37 46 53 37 40 34 32
3 3 3 4 4 4 4 4 4 4 4 4 4 5 6 6 6 7 9 12 12 10 9 8 7 8 8 8 7 8 9 11 14 12 14 24 19 19 25 27 20 20 26 36 44 39 37 36 36 37 34 34 36 56
3 3 3 4 4 5 5 5 5 6 6 6 6 7 7 8 8 8 7 6 7 7 7 8 8 9 9 8 8 8 10 13 13 13 18 19 12 16 15 13 20 38 35 23 22 30 28 28 28 29 35 45 73 90
3 3 3 3 4 5 7 8 9 9 9 10 10 9 9 7 6 6 6 7 8 7 7 9 9 11 11 10 14 16 16 16 14 15 14 11 13 14 17 22 21 19 20 24 25 24 24 24 31 37 51 74 84 87
4 4 4 4 4 4 4 5 6 7 7 10 10 11 12 12 11 12 12 12 11 10 10 12 12 14 13 15 16 14 12 11 9 8 8 11 12 16 16 14 16 19 21 21 21 26 33 35 46 62 78 88 91 99
5 5 5 4 4 4 4 5 5 5 6 6 6 6 7 6 6 7 7 8 7 7 7 8 8 7 6 6 6 7 9 9 11 15 16 15 15 15 16 17 18 20 24 30 34 37 47 62 76 84 91 99 100 97
7 6 6 6 6 6 6 5 6 6 6 6 6 6 7 6 7 7 6 7 8 9 9 9 9 11 10 11 12 13 14 12 12 13 14 15 14 15 17 23 27 32 34 40 59 72 78 84 97 100 100 97 98 100
16 12 10 9 10 10 10 8 7 6 7 7 7 7 7 6 6 6 6 5 6 6 8 9 8 8 8 8 9 9 10 11 12 13 15 19 22 26 26 31 36 50 65 72 80 89 88 90 92 93 100 100 100 100
27 25 24 24 23 19 15 14 14 13 12 11 10 9 9 9 9 8 8 8 10 10 11 11 11 11 12 12 14 16 17 18 19 23 24 31 40 52 63 68 72 75 78 78 78 80 86 92 96 100 100 100 100 100
31 32 34 35 34 35 38 39 36 34 31 28 26 23 20 19 19 18 17 16 17 18 18 18 18 19 18 18 20 23 27 32 39 47 57 65 69 67 64 66 69 73 80 88 92 95 97 98 98 100 100 100 98 100
44 45 46 46 49 49 49 49 48 50 52 52 49 48 47 46 46 45 43 41 40 38 37 36 38 40 40 42 47 54 62 69 74 72 67 68 70 76 82 89 94 100 99 93 90 93 97 100 100 100 100 100 100 100
45 50 57 60 66 63 58 55 53 51 52 52 55 61 63 60 58 60 62 60 59 58 57 60 60 59 63 66 67 66 64 63 65 70 78 85 88 88 87 84 82 84 86 92 98 98 95 97 100 100 99 99 100 100
45 52 57 57 62 64 61 66 68 66 61 62 62 58 57 66 66 67 62 62 63 61 60 61 62 61 62 68 70 74 75 79 85 91 92 91 89 91 92 88 87 89 91 93 94 94 98 100 98 99 100 100 100 98
22 31 42 51 56 58 64 63 64 62 66 67 65 64 68 69 71 83 81 75 72 73 76 75 77 78 78 76 76 82 92 96 100 100 97 96 94 87 81 80 81 81 86 91 94 98 100 100 100 100 95 87 88 95
14 15 14 18 26 39 53 64 67 63 64 67 71 71 74 74 69 65 65 67 71 74 75 73 73 75 75 75 77 83 87 89 90 89 87 85 81 79 77 80 83 86 91 97 98 98 98 97 94 93 94 92 92 86
25 19 17 16 16 15 18 20 32 45 56 64 66 65 73 76 77 72 77 86 83 79 78 77 75 75 77 80 79 79 82 83 79 75 80 84 84 82 81 84 85 86 88 88 88 90 93 94 93 92 86 82 82 82
41 39 32 23 19 17 17 17 16 15 16 20 30 38 47 54 52 50 61 71 80 82 79 79 80 81 82 81 82 81 79 79 79 79 79 78 80 82 81 83 84 83 82 80 81 82 83 82 82 81 78 78 71 48
62 48 41 39 34 26 20 18 18 17 16 16 14 14 15 18 24 30 34 39 44 49 55 58 58 60 61 64 67 66 68 68 68 68 68 68 69 71 71 69 68 69 71 73 74 74 74 73 66 55 46 33 27 23
95 90 74 58 47 42 37 30 22 17 16 16 16 16 15 14 14 14 14 17 20 23 28 37 44 45 45 47 50 51 53 54 58 61 63 64 64 64 61 59 59 57 54 52 49 44 37 31 26 22 20 18 14 13
100 100 94 88 75 59 47 41 38 34 25 20 16 15 14 14 15 14 13 12 12 12 13 15 17 19 20 22 25 29 33 34 35 34 32 30 29 32 30 29 27 26 24 23 22 20 19 18 16 16 13 11 11 12
100 100 100 98 88 76 65 52 41 37 34 31 25 19 15 14 15 14 14 13 12 11 10 10 10 10 11 13 15 16 18 18 19 20 20 20 20 20 21 21 20 20 19 18 17 16 15 14 12 10 11 11 10 11
100 100 100 100 100 100 88 70 59 48 39 34 32 30 25 19 15 14 13 13 13 13 12 10 10 10 9 9 8 8 8 10 11 13 16 17 18 19 20 20 20 20 19 17 14 12 10 10 10 10 10 10 12 12
100 100 100 95 98 96 95 90 74 63 54 45 37 33 30 28 24 20 16 14 13 12 12 12 11 10 9 8 8 8 7 6 6 7 9 11 12 15 17 18 18 16 14 13 12 12 11 10 10 11 12 12 12 13

GFSWCAN_250_rhum_159.txt.gz
RH
2 2 2 2 2 2 2 2 2 3 3 3 3 4 4 5 5 4 4 4 4 6 8 8 8 10 11 12 14 16 14 14 16 16 16 16 17 17 16 18 21 23 28 31 27 23 28 34 31 30 39 47 52 57
2 2 2 2 2 2 2 2 2 2 2 3 3 3 3 3 4 4 5 5 4 4 7 7 8 9 11 13 14 14 14 16 18 18 15 17 17 17 17 18 19 20 20 20 21 25 27 32 49 41 50 56 52 62
2 2 2 2 2 2 2 2 2 2 2 2 2 3 3 3 3 3 4 5 6 6 7 8 10 11 11 12 12 13 15 17 16 16 13 14 16 18 19 20 20 19 19 20 21 32 36 40 47 55 63 57 48 52
2 2 2 2 2 2 2 2 2 2 2 2 2 2 2 3 3 3 3 4 5 8 9 10 10 10 12 12 12 12 14 13 12 13 14 17 17 19 19 19 19 21 23 27 28 33 40 42 40 37 47 39 54 70
2 2 2 2 2 2 2 2 2 2 2 2 2 2 2 3 3 3 3 4 5 8 10 8 8 11 11 11 10 10 11 11 12 13 15 16 16 16 16 17 18 21 22 26 30 35 37 35 30 32 37 54 67 75
2 2 2 2 2 2 2 2 2 2 2 2 2 2 2 3 3 4 4 5 5 7 8 8 9 10 11 6 6 8 10 12 14 13 13 15 15 14 15 18 23 29 29 25 26 30 29 29 31 37 52 66 79 95
2 2 2 2 2 2 2 2 2 2 2 2 2 2 3 4 4 4 5 4 5 6 7 8 11 9 8 8 7 9 13 12 14 13 12 13 13 14 16 23 48 31 27 28 22 22 27 32 43 62 75 66 74 91
2 2 2 2 2 2 2 2 2 2 2 2 3 3 3 4 4 3 3 4 5 6 6 8 9 8 9 10 10 9 12 14 11 11 12 11 13 14 21 46 46 27 22 20 18 21 30 37 52 74 64 73 82 91
2 2 2 2 2 2 2 2 2 2 3 3 3 3 3 3 3 4 4 5 5 5 7 10 11 11 11 11 12 12 14 15 15 14 12 11 13 15 18 27 25 22 23 24 23 27 37 48 44 50 56 62 73 73
2 2 2 2 2 2 2 2 3 3 3 3 3 3 3 3 4 4 4 4 5 5 7 9 10 10 12 15 18 17 16 16 15 12 13 16 16 11 15 20 22 17 20 21 26 28 31 39 45 48 56 64 61 58
2 2 2 2 2 2 2 2 2 2 3 3 4 4 4 4 4 5 5 5 6 7 8 8 10 12 16 15 15 16 14 14 13 12 13 17 11 9 10 16 22 20 16 18 18 24 35 47 48 52 52 52 52 52
3 3 2 2 2 3 3 3 3 3 3 3 3 4 4 4 5 6 6 7 7 8 10 11 12 12 13 14 15 14 13 14 14 14 15 15 8 7 10 13 16 14 10 11 17 16 23 32 38 47 51 50 49 46
4 4 4 3 3 3 3 3 3 4 4 4 4 5 6 6 6 6 7 8 9 10 12 14 14 15 16 15 15 14 19 18 16 16 12 8 6 7 10 13 13 13 13 13 16 18 20 23 32 36 41 48 47 48
4 4 4 4 4 4 4 4 4 4 4 5 5 5 6 6 7 8 8 8 9 10 12 13 14 14 13 14 16 15 15 12 9 8 6 6 10 12 15 12 12 12 14 16 19 19 19 18 22 30 39 40 39 41
4 4 4 4 5 5 5 6 6 6 6 6 7 7 8 7 7 8 9 8 9 9 9 9 9 9 10 12 11 10 10 9 8 9 14 14 12 11 12 14 13 13 16 16 16 16 17 20 22 25 32 33 32 28
5 5 5 5 5 6 6 7 7 7 8 8 8 9 9 9 10 10 11 12 12 11 10 9 9 8 8 9 9 12 13 12 17 14 14 11 9 8 9 12 10 10 11 12 12 14 18 22 24 26 25 26 27 34
10 8 7 6 6 6 7 7 8 8 8 9 8 8 8 8 8 9 9 9 8 9 10 11 11 12 11 11 11 12 12 12 11 8 8 8 8 8 9 10 11 13 14 16 18 20 20 20 20 22 26 36 42 49
29 20 16 13 12 10 8 8 8 8 8 8 8 8 8 8 8 8 9 9 10 9 9 8 8 8 9 10 8 8 9 10 9 10 11 13 12 11 14 15 12 12 14 15 17 18 19 22 29 35 42 50 60 63
31 34 36 37 35 28 20 17 15 15 15 15 14 14 13 13 12 11 10 10 9 8 8 8 9 9 8 9 9 10 10 10 10 12 12 12 12 12 13 14 15 16 17 20 24 28 31 34 41 52 61 66 70 76
33 35 36 37 37 39 43 46 44 42 37 35 31 27 23 20 18 17 18 19 18 17 16 15 12 11 10 11 10 11 12 12 12 13 15 16 16 18 20 22 24 26 28 31 37 43 53 61 64 68 74 82 87 89
24 29 32 39 43 44 42 43 48 51 54 56 57 55 54 52 51 49 45 42 35 29 24 22 19 18 18 19 21 21 23 24 22 27 31 34 39 43 44 47 50 55 58 61 64 67 73 77 81 84 87 88 89 88
20 15 16 19 33 37 41 44 49 52 54 54 56 58 60 59 58 57 56 50 46 46 47 49 50 50 50 48 46 44 44 45 46 46 48 51 55 57 60 63 64 65 69 77 81 84 85 83 85 87 87 86 85 84
51 39 29 22 16 14 16 21 31 34 36 39 45 52 58 63 65 64 60 58 57 58 54 50 48 49 52 55 57 56 55 54 52 51 51 54 56 56 58 61 66 68 72 74 76 77 76 76 77 80 82 83 85 89
70 73 64 49 40 31 23 18 15 14 14 16 23 36 42 46 49 51 53 56 56 61 64 66 66 64 61 60 61 63 64 64 64 63 63 63 62 67 70 73 75 78 78 77 78 79 76 75 76 78 80 83 89 93
70 67 71 74 75 61 48 42 36 29 23 20 17 15 12 13 33 41 44 42 42 46 51 55 57 57 59 63 68 70 69 70 72 70 71 73 74 74 74 73 74 76 79 79 79 78 76 78 80 82 92 96 95 96
79 74 76 72 68 72 75 72 55 46 41 37 32 26 22 19 17 17 17 16 15 14 15 20 28 36 42 50 56 60 60 59 64 73 78 82 88 90 91 94 94 91 89 89 89 92 96 97 95 95 96 96 95 94
88 82 81 83 82 77 75 74 75 72 61 49 41 36 35 32 27 22 20 20 19 19 18 17 15 13 13 13 17 23 29 33 38 42 46 52 59 66 72 81 86 83 82 82 84 86 90 91 91 91 91 88 85 82
96 95 90 84 83 82 84 82 78 79 82 79 68 59 49 40 35 33 31 27 22 20 20 19 19 19 18 17 16 15 15 16 17 19 21 27 33 37 39 43 50 55 59 61 64 66 65 64 62 61 56 46 41 38
91 100 99 91 84 82 86 86 85 85 84 84 81 77 71 65 56 48 40 35 32 30 26 22 20 19 18 18 18 17 17 16 15 14 14 14 14 14 15 15 16 18 20 21 23 24 24 26 26 25 26 26 27 27
67 84 83 87 86 78 79 87 89 88 91 93 97 89 77 73 72 64 56 50 42 36 33 30 28 25 21 18 17 17 16 16 16 16 15 14 12 12 12 12 12 12 11 11 10 10 11 11 12 14 18 20 23 25
32 38 52 61 66 76 79 85 88 94 90 88 94 94 95 95 82 71 68 62 60 55 45 38 34 31 29 27 24 20 17 16 16 15 15 14 12 11 10 10 10 10 10 9 8 8 8 8 10 12 16 20 21 20
21 25 28 30 41 55 65 65 67 69 72 75 71 72 79 88 93 93 78 70 65 64 62 56 48 39 35 31 28 26 23 20 18 16 15 14 14 12 11 10 9 9 8 8 7 6 6 7 9 12 15 17 18 18
13 14 19 22 23 28 33 40 46 52 61 66 72 67 66 67 73 84 80 78 78 74 67 59 58 55 48 41 36 32 28 25 23 20 18 16 15 14 12 10 9 8 8 7 6 5 5 6 7 9 10 12 13 14

GFSWCAN_250_rhum_162.txt.gz
RH
4 3 3 3 3 3 3 3 3 3 3 3 3 3 3 4 4 4 5 5 4 4 6 6 7 8 9 9 9 11 11 12 13 13 14 16 16 15 14 16 18 20 21 22 26 27 23 32 29 40 69 85 86 81
3 3 3 3 3 3 3 3 3 3 3 3 3 3 3 3 3 3 4 5 5 6 7 6 7 8 9 10 9 11 11 13 14 14 15 15 14 12 16 18 18 21 21 20 23 29 38 38 38 47 69 77 72 52
3 3 3 3 3 3 3 3 2 2 2 3 3 3 3 3 3 3 3 3 4 6 8 9 10 8 7 8 8 9 12 12 12 13 14 14 13 14 18 19 19 20 22 23 24 37 38 29 33 42 49 46 36 35
2 3 3 3 3 2 2 2 2 2 2 3 3 3 3 3 3 3 3 3 4 5 8 10 9 8 7 7 9 11 10 10 11 12 14 16 15 14 17 20 20 20 21 24 25 30 26 27 31 34 40 42 35 35
2 2 2 2 2 2 2 2 2 2 2 2 2 3 3 3 3 3 3 4 4 6 8 6 7 7 7 9 10 10 11 12 12 13 14 17 15 15 17 17 21 20 21 22 23 24 24 25 26 28 35 43 41 47
2 2 2 2 2 2 2 2 2 2 2 2 2 2 2 3 3 3 3 4 4 5 4 4 5 8 9 10 9 10 11 11 12 13 14 14 16 16 17 20 22 23 21 20 20 20 22 25 26 26 26 30 42 63
2 2 2 2 2 2 2 2 2 2 3 3 2 2 2 3 3 2 3 3 4 4 4 4 6 8 10 10 9 9 9 10 11 11 12 14 13 16 19 22 18 15 15 16 17 19 22 24 27 27 44 60 69 70
2 2 2 2 2 2 2 2 2 2 2 2 2 2 2 2 2 3 3 4 4 4 4 6 7 8 8 8 10 10 10 12 14 17 17 14 14 16 22 22 24 20 15 17 19 19 21 22 30 37 52 50 48 52
2 2 2 2 2 2 2 2 2 2 2 2 2 2 2 3 3 3 4 4 4 4 5 6 7 9 10 9 9 10 11 12 18 20 18 20 20 20 19 17 16 18 18 16 13 15 18 20 22 27 31 37 41 49
2 2 2 2 2 2 2 2 2 3 3 3 4 4 4 4 4 4 4 4 4 5 6 6 6 7 9 11 12 13 15 18 20 25 29 31 19 13 11 13 16 16 14 13 11 12 15 20 22 25 31 36 45 50
3 3 2 2 2 2 2 2 3 3 2 3 3 4 4 4 4 5 5 5 6 6 8 9 10 12 12 12 14 18 22 22 25 22 23 24 18 8 10 10 12 15 12 13 12 12 15 15 17 20 26 35 40 45
4 3 3 3 3 2 2 3 3 3 3 3 3 4 5 6 7 8 9 9 9 9 9 10 10 12 15 18 20 21 23 23 23 20 22 24 12 7 7 11 13 12 11 11 12 10 12 16 18 21 30 37 43 47
4 4 4 4 4 4 3 3 4 4 4 4 4 4 5 5 5 6 7 7 8 10 13 14 15 16 18 19 23 23 23 20 20 18 16 12 8 7 11 11 14 15 12 11 11 11 13 18 23 24 28 36 39 40
4 4 4 4 5 5 4 4 5 5 5 5 5 6 6 6 6 8 9 11 12 12 12 14 15 16 15 16 16 15 16 14 14 15 10 8 14 15 14 12 12 11 11 10 11 12 13 16 21 26 26 31 35 40
5 4 4 5 5 5 5 6 6 6 7 6 7 6 7 7 8 8 9 11 12 12 11 12 13 12 14 15 14 14 15 15 12 10 15 18 14 10 9 7 7 8 10 10 11 12 13 14 15 18 22 25 30 33
8 7 6 6 5 5 6 6 7 7 6 7 8 8 8 9 10 10 11 12 12 13 12 12 12 13 13 14 13 13 15 15 12 17 17 14 10 8 7 9 9 10 11 11 11 13 13 13 14 19 27 29 31 33
23 16 11 8 8 7 7 6 6 6 7 7 7 7 8 9 9 10 10 10 10 11 10 10 10 10 11 15 14 15 15 14 12 11 10 9 10 11 12 13 13 13 13 13 14 14 14 16 18 21 25 28 28 27
34 32 29 24 19 15 13 12 10 9 9 9 8 8 9 10 10 10 11 11 12 12 12 12 12 11 11 10 10 10 11 12 12 12 13 12 12 12 12 13 13 12 12 14 14 14 15 16 18 20 22 23 26 34
32 38 39 38 34 32 31 28 24 20 17 16 16 15 14 14 14 12 11 10 9 10 10 10 11 11 11 12 12 11 11 12 12 12 13 14 13 13 13 13 14 15 15 15 15 15 16 18 19 23 30 37 44 57
29 32 38 42 43 43 40 40 40 39 38 38 36 34 32 30 27 24 22 20 19 17 14 15 14 13 12 12 11 11 11 11 12 12 12 11 10 11 12 13 14 16 18 20 22 24 27 29 35 43 53 62 66 69
53 39 33 33 40 46 49 49 45 43 43 43 46 46 46 46 46 46 42 41 41 37 32 30 27 25 23 21 20 19 19 18 15 17 18 18 19 19 22 24 24 26 29 36 43 49 55 59 61 64 68 73 75 76
72 65 57 48 39 35 38 44 51 56 57 52 47 44 43 45 48 53 57 58 56 58 58 56 54 52 46 41 36 33 32 33 36 38 40 41 43 45 48 48 50 52 53 55 57 59 65 73 78 81 80 81 82 81
78 75 74 68 56 47 42 36 33 34 44 52 54 54 52 51 52 52 52 53 53 54 57 58 57 56 56 55 57 56 54 54 53 52 51 51 52 53 52 52 54 57 59 61 66 68 72 78 80 80 82 83 82 82
82 84 84 84 83 78 68 51 41 35 33 31 31 38 45 45 45 43 50 52 53 53 51 51 54 56 59 61 64 65 64 63 62 62 65 67 68 68 70 71 70 72 75 78 81 83 84 85 85 87 88 86 86 88
84 85 84 87 84 84 85 87 79 64 49 39 31 28 26 27 29 30 30 30 34 39 45 47 49 51 51 53 56 59 60 62 64 64 62 64 64 64 67 71 75 78 79 80 80 82 86 89 89 89 89 90 90 90
71 69 71 78 82 83 84 85 86 91 90 81 63 49 42 36 33 30 25 22 22 22 22 23 23 25 30 34 38 43 46 48 50 54 54 54 55 56 57 58 62 69 71 75 77 80 83 86 87 88 90 92 93 90
46 62 66 68 65 72 73 77 81 83 86 94 96 91 81 66 53 43 39 36 33 28 24 20 19 18 19 19 20 20 21 22 24 26 27 31 36 43 49 53 56 54 56 58 60 65 69 71 72 70 67 62 58 55
33 32 38 43 56 65 70 72 76 80 85 84 86 92 94 94 91 79 64 53 46 40 36 34 31 28 25 22 21 20 20 19 19 18 18 18 18 17 17 17 17 18 18 20 21 22 24 25 25 26 26 26 26 25
29 28 28 27 29 35 47 60 68 72 76 80 87 90 91 91 92 92 89 84 77 66 58 48 43 39 36 33 31 29 26 23 21 20 20 19 19 19 18 18 17 16 15 14 14 14 14 14 14 14 14 13 13 13
21 20 20 21 23 23 26 32 44 59 74 78 80 80 84 92 90 89 92 87 82 83 83 77 68 58 50 46 40 36 33 31 29 26 24 22 21 20 20 19 18 16 15 14 13 12 12 12 12 12 11 10 10 10
13 11 12 14 17 18 18 19 23 27 36 55 64 63 70 82 78 71 85 91 90 89 85 82 77 75 70 62 55 49 45 39 34 31 28 26 24 21 20 19 18 17 15 13 12 11 11 11 10 10 8 8 8 8
10 9 10 10 12 14 14 16 17 18 25 36 44 48 58 62 72 78 77 76 78 86 88 85 84 81 75 71 69 64 55 48 43 40 36 32 29 26 23 21 19 17 15 13 12 10 10 9 9 8 7 6 6 7
7 8 9 8 9 11 12 13 14 14 16 21 28 35 41 49 59 63 66 70 73 76 78 76 75 72 72 73 66 64 62 57 52 48 42 38 35 31 27 24 21 19 17 15 13 11 10 9 9 8 7 6 6 6

GFSWCAN_250_rhum_168.txt.gz
RH
3 3 3 3 3 3 3 3 4 4 4 4 5 4 4 4 4 4 4 4 4 5 7 7 8 8 7 7 7 8 7 7 10 9 8 9 11 12 10 9 9 10 11 13 14 14 14 15 15 16 18 19 20 19
2 2 2 2 3 3 3 3 3 4 4 5 5 5 4 4 4 5 4 4 4 4 5 6 7 8 8 7 7 7 7 6 7 7 7 9 10 9 8 9 10 11 11 14 14 14 12 13 14 17 18 19 20 20
2 2 2 3 3 3 3 4 4 4 5 5 5 5 5 4 4 5 5 4 4 4 5 5 6 5 7 8 8 9 9 8 8 7 8 9 10 8 7 8 10 11 12 12 12 13 14 14 14 17 19 21 21 23
3 3 3 3 3 3 3 4 4 4 5 5 4 5 5 5 5 5 5 4 4 4 6 5 4 5 5 5 6 9 8 8 8 7 8 9 9 8 8 10 13 13 12 13 14 14 15 16 17 20 22 21 22 22
2 2 2 2 2 2 3 3 3 3 4 4 4 4 4 4 4 5 4 4 4 4 5 4 4 4 4 5 5 6 7 8 8 8 10 10 10 10 11 16 15 11 14 16 18 16 19 18 18 18 20 21 23 25
2 2 2 2 2 2 2 2 3 3 3 3 3 3 3 3 4 4 4 4 4 4 5 4 4 3 4 4 5 5 6 7 9 10 11 12 11 10 13 18 11 11 16 18 19 19 18 18 20 21 21 21 22 23
2 2 2 2 2 2 2 3 3 3 3 3 3 3 3 4 4 4 3 3 4 4 4 4 3 3 4 6 6 6 6 7 10 12 14 14 12 11 16 19 10 14 19 18 18 21 21 20 21 21 22 22 23 23
2 2 2 2 2 2 2 3 3 3 3 3 3 3 3 4 4 4 4 4 4 4 4 3 4 5 6 6 7 8 9 8 10 14 13 12 11 12 17 17 14 18 21 19 19 18 18 17 18 17 18 20 22 23
2 2 2 2 2 2 2 2 2 3 3 3 3 3 3 4 4 3 3 3 4 4 4 4 5 6 6 6 6 8 8 10 11 13 12 12 15 20 31 14 20 20 17 18 18 18 18 15 14 15 16 15 16 18
3 3 2 2 2 2 2 3 3 3 3 3 3 3 3 3 3 3 3 3 3 4 4 4 5 5 5 6 6 7 8 10 12 13 14 17 24 22 18 20 21 21 18 17 15 12 11 15 19 16 12 12 15 17
4 3 3 3 3 3 3 3 3 3 4 4 4 4 4 4 4 4 4 4 4 4 4 4 5 6 7 7 7 8 10 11 12 15 18 22 22 18 21 18 17 17 16 14 14 14 15 13 13 11 9 11 15 17
4 4 4 4 3 3 4 4 3 3 3 3 3 3 4 4 4 4 4 5 5 6 5 6 7 8 11 14 13 13 13 16 17 17 20 19 14 16 15 15 18 19 18 17 17 17 12 8 9 10 10 11 14 14
5 5 6 6 6 5 4 4 4 4 4 4 4 5 5 4 5 4 4 5 5 6 6 8 10 11 11 14 13 15 15 18 16 20 19 15 12 11 16 20 20 21 22 18 15 14 11 8 10 11 10 10 13 14
7 6 5 5 5 6 7 6 6 6 6 6 6 5 6 5 6 5 4 5 5 6 7 9 10 13 14 15 17 18 16 18 19 19 14 11 11 15 15 17 19 16 14 18 17 15 13 10 11 12 11 12 12 13
21 17 12 9 7 7 6 6 6 7 6 7 7 7 7 7 6 6 6 6 6 7 8 8 10 11 11 14 15 14 16 16 14 13 13 14 18 19 18 16 15 17 17 14 12 11 11 10 9 10 12 13 12 13
20 21 23 22 17 12 10 8 8 8 7 7 8 8 9 9 8 8 8 8 8 10 11 12 13 14 15 14 14 14 12 11 12 14 16 16 16 17 17 18 20 17 14 13 13 12 12 13 12 12 13 13 13 14
22 25 25 27 29 30 29 23 17 13 11 10 8 8 10 10 10 11 12 12 13 13 12 13 14 14 14 13 14 15 17 16 15 15 16 17 17 17 16 15 14 14 13 13 12 12 11 11 11 12 13 14 14 16
33 29 31 33 35 36 38 38 38 38 32 25 18 15 13 11 10 10 10 12 13 15 16 16 15 15 16 16 17 16 15 14 14 14 12 13 12 11 10 11 12 14 13 13 13 14 14 13 12 11 11 11 13 14
55 45 36 30 30 34 40 40 41 41 41 41 41 41 38 32 26 21 19 18 18 18 16 15 14 13 13 13 14 14 15 15 15 14 12 12 13 14 14 15 16 14 14 14 15 15 14 14 14 14 15 16 17 19
82 71 60 49 42 33 27 27 31 33 37 40 40 38 38 39 40 43 45 44 41 37 36 36 34 31 27 23 19 18 17 18 18 14 12 12 13 12 15 15 13 14 16 16 16 14 14 15 15 15 16 16 17 18
91 96 92 80 66 58 48 41 35 31 32 36 44 49 52 54 49 47 45 41 39 36 36 37 38 39 38 35 36 44 49 46 42 38 32 25 26 22 19 20 24 24 23 23 22 22 23 24 24 25 26 28 32 39
66 76 83 97 99 95 81 61 53 42 35 32 32 33 35 38 40 45 53 55 55 55 55 51 48 46 44 41 39 39 39 37 36 35 34 35 38 43 47 49 49 48 48 46 46 47 48 50 50 50 50 51 54 56
38 46 52 64 76 87 96 98 89 69 47 38 32 28 27 27 26 27 26 28 34 45 51 55 56 56 55 51 49 48 48 51 52 53 54 57 60 60 58 55 55 56 57 58 58 59 60 63 65 66 68 70 72 76
30 32 38 40 42 53 65 75 86 90 86 75 62 49 40 35 32 29 26 24 23 23 22 22 23 25 29 33 38 42 48 50 51 54 56 58 58 58 57 56 56 57 59 62 66 70 74 75 77 78 79 80 80 80
23 26 29 32 38 37 39 52 63 81 90 91 93 88 70 67 61 52 44 38 34 30 26 22 22 22 21 21 20 20 21 21 22 23 28 32 36 38 39 40 41 44 45 48 49 49 50 53 54 56 59 64 69 72
19 21 22 24 27 29 32 36 37 48 68 77 88 96 99 94 88 82 68 61 53 48 43 39 35 31 29 27 24 22 21 21 21 20 21 20 20 20 20 21 22 22 23 23 23 24 24 24 25 27 28 31 33 34
16 16 17 19 20 22 24 27 29 32 33 48 66 76 88 97 99 95 88 88 82 75 66 58 51 46 42 40 38 36 34 32 31 30 28 27 26 26 26 25 25 25 25 25 25 25 25 25 24 23 22 21 21 20
11 12 14 15 16 16 17 19 21 23 26 29 32 52 76 72 72 94 99 90 86 90 92 91 88 81 75 66 59 54 50 47 45 44 41 39 37 36 34 33 32 31 30 29 28 27 26 26 25 24 23 21 19 18
10 10 11 12 13 12 13 14 15 17 18 20 24 28 36 68 76 68 76 89 93 95 96 97 96 92 91 91 89 83 76 70 67 64 62 59 56 52 47 45 42 40 37 35 33 31 29 27 25 23 22 20 19 17
8 8 8 9 10 11 11 13 12 13 14 17 17 19 24 30 40 55 60 72 89 91 93 96 96 96 96 95 95 95 93 92 92 95 92 84 78 71 67 63 59 55 51 47 43 39 35 32 29 26 23 21 20 18
6 6 6 7 8 9 10 11 10 10 10 12 14 15 16 20 26 31 35 41 68 81 80 85 94 96 98 99 97 98 100 95 95 94 92 87 83 78 71 66 62 60 57 55 52 48 44 40 34 30 27 23 21 19
4 4 4 5 5 6 8 9 9 9 9 10 11 10 11 12 13 16 20 21 22 46 76 78 75 77 86 93 96 97 96 96 96 94 91 90 82 78 74 67 62 59 55 53 50 47 44 44 41 34 29 24 20 18
3 3 4 4 4 5 6 7 7 8 8 8 9 9 9 10 12 14 16 20 21 21 30 50 68 69 68 73 77 82 89 92 91 91 90 88 86 81 75 66 58 56 53 49 47 45 42 40 39 35 30 25 21 18

GFSWCAN_250_rhum_171.txt.gz
RH
2 3 3 3 4 4 3 3 3 4 4 4 4 5 5 5 6 6 4 4 4 5 5 6 7 8 8 8 8 8 8 8 9 8 8 8 8 10 9 12 12 12 14 15 14 13 15 16 13 12 12 11 13 14
2 2 2 2 3 3 3 3 3 3 3 4 4 4 5 5 7 7 7 7 6 5 5 5 5 6 6 5 7 8 9 9 9 8 8 8 8 8 10 12 14 11 9 11 14 16 13 10 11 13 14 14 15 16
2 2 2 2 2 3 3 3 3 3 3 4 4 4 4 5 6 7 7 8 8 8 6 6 5 5 5 5 5 6 7 10 10 8 8 9 8 7 10 11 12 10 8 11 13 15 15 14 13 13 14 14 15 16
2 2 2 2 3 3 3 3 3 4 4 4 4 5 5 5 5 6 6 7 8 7 7 7 6 5 5 5 5 5 5 6 8 8 10 9 10 11 11 11 12 8 13 13 15 15 16 16 16 15 15 16 18 19
2 2 2 2 2 3 3 4 4 4 4 5 5 6 6 6 6 6 6 7 7 5 6 6 5 5 5 5 5 5 5 5 6 7 10 10 11 13 10 10 11 11 12 15 16 15 16 16 17 19 19 20 21 25
2 2 2 2 2 2 2 3 3 3 3 4 4 4 4 4 5 5 6 5 4 4 6 5 4 3 4 4 5 5 5 5 6 6 10 11 13 12 12 11 11 13 15 15 16 18 18 18 21 23 22 24 25 24
2 2 2 2 2 2 2 2 3 3 3 3 4 4 4 4 4 4 4 4 4 4 4 4 3 3 4 4 5 5 5 6 6 7 11 11 12 11 11 12 11 14 17 18 19 21 20 20 20 23 24 24 26 26
2 2 2 2 2 2 2 2 2 3 3 3 3 3 3 4 4 4 4 4 4 4 4 3 3 4 8 7 6 6 6 6 8 10 11 11 10 11 15 24 16 14 18 17 19 24 23 22 22 21 23 25 27 25
2 2 2 3 3 3 3 3 3 3 3 3 3 3 3 3 3 3 3 4 3 3 3 3 4 5 5 4 4 5 6 7 8 11 10 9 10 21 40 32 13 16 18 18 21 25 24 22 25 24 21 19 18 19
2 2 2 2 3 3 3 3 3 3 3 3 4 4 4 4 4 4 4 4 4 4 4 4 4 4 4 5 5 5 6 7 8 9 8 14 18 20 20 14 17 18 22 23 23 23 23 23 21 18 15 15 20 22
3 3 3 3 3 3 3 4 4 4 4 4 4 4 4 4 4 4 4 4 4 4 4 4 4 4 5 5 6 7 8 8 8 9 12 16 19 20 18 21 21 19 20 21 25 28 22 17 17 19 19 19 14 10
4 4 3 3 3 4 4 4 4 4 4 4 5 5 5 5 5 5 5 5 5 5 6 6 6 7 8 8 8 9 10 10 11 12 16 17 15 15 19 18 17 21 28 27 28 24 26 28 21 14 12 11 12 14
5 5 4 5 5 5 5 5 5 5 5 6 6 5 5 5 5 5 6 6 6 7 7 6 6 6 7 9 11 13 12 13 14 16 19 14 14 16 17 18 24 34 31 31 32 27 21 17 15 12 11 11 11 8
14 8 6 5 5 5 5 5 5 6 6 6 7 6 6 6 7 6 6 6 6 7 7 7 8 7 7 9 11 10 11 12 13 15 14 14 16 21 26 34 32 31 32 28 24 22 18 15 12 10 9 9 8 9
24 22 18 12 8 6 6 6 6 7 7 7 7 8 8 8 8 8 7 7 7 7 7 8 8 10 10 11 12 12 12 12 13 16 18 19 22 27 32 30 30 29 24 20 20 18 15 14 12 11 10 9 9 9
17 22 28 28 25 20 14 11 10 8 8 8 8 8 8 8 8 9 9 10 10 10 10 10 10 11 12 12 13 15 16 19 22 22 24 23 23 23 22 20 19 20 19 18 16 15 15 13 11 10 10 10 10 10
36 24 19 22 30 31 30 28 24 19 15 12 10 10 9 9 9 9 10 11 12 12 14 13 14 13 15 17 18 18 19 18 17 16 14 13 14 15 14 13 14 15 16 16 14 14 14 13 13 13 13 12 11 11
70 55 37 27 22 22 26 32 34 33 32 31 28 23 18 15 13 12 11 11 12 12 12 13 13 14 14 14 15 15 16 16 16 16 16 17 16 15 14 12 12 15 15 14 14 14 16 14 14 13 13 14 13 12
77 79 75 60 42 34 27 24 26 33 38 38 38 38 38 37 35 30 25 21 17 14 12 12 14 14 15 15 15 15 16 15 14 14 14 14 14 15 15 15 14 13 13 13 15 17 15 14 14 14 14 13 14 14
63 76 86 89 82 60 47 37 32 30 32 38 44 46 45 42 40 39 40 40 41 42 38 33 29 24 23 22 22 22 21 19 16 15 15 15 14 13 13 14 14 13 12 13 17 15 15 15 17 17 17 18 18 19
56 58 65 79 88 90 83 66 49 38 33 30 28 31 36 40 44 46 46 45 47 45 46 48 50 50 46 46 48 49 45 39 34 31 32 33 28 24 21 21 22 22 24 22 22 25 26 26 26 26 26 27 28 28
40 46 50 56 72 88 94 89 83 69 50 41 34 32 29 29 29 32 36 40 41 43 44 44 45 47 50 49 48 47 46 46 46 49 52 51 51 49 47 45 43 43 42 44 48 48 48 51 52 52 52 52 52 52
28 34 43 50 50 60 74 87 84 87 85 69 53 45 42 40 37 34 30 27 27 25 25 26 28 33 37 40 42 44 48 50 50 48 47 43 40 40 40 41 44 49 55 62 64 64 67 71 73 71 70 71 72 74
17 19 27 32 40 46 55 61 76 90 96 98 93 81 65 51 41 39 37 36 35 32 29 26 24 23 23 24 27 32 38 40 40 41 43 43 42 41 42 45 48 50 52 52 53 54 54 55 56 57 60 62 65 68
14 14 15 17 24 29 35 41 48 55 68 86 95 96 96 87 73 60 51 43 37 36 36 35 36 33 30 27 26 24 24 23 23 22 22 22 24 24 26 25 25 25 26 28 28 29 31 32 32 33 36 38 38 39
14 13 13 14 15 17 19 22 27 32 39 46 63 78 92 92 96 95 87 83 72 61 51 43 38 36 34 34 33 32 31 30 29 29 28 27 28 28 28 28 28 28 27 27 27 27 27 27 27 27 28 28 28 28
12 13 13 13 13 14 15 16 18 20 24 28 35 42 59 73 80 88 100 99 98 91 88 81 75 64 53 46 42 38 37 35 34 33 33 32 31 31 32 32 33 33 32 33 32 32 32 31 31 30 30 30 30 30
10 10 11 11 12 12 13 14 15 15 16 20 23 26 29 36 55 70 87 92 94 98 96 94 94 93 90 84 78 75 73 68 61 54 52 51 51 49 47 48 48 50 50 50 50 49 47 46 45 43 40 38 36 34
7 7 8 9 9 10 11 12 12 14 14 15 16 17 19 22 25 31 52 74 86 93 97 98 98 99 98 96 94 89 89 90 92 87 83 80 83 79 72 70 68 66 64 62 61 59 57 55 53 52 49 46 42 38
5 6 6 7 7 8 9 9 10 11 12 12 13 14 15 16 19 24 27 31 51 76 82 88 91 95 98 99 100 99 95 92 93 93 93 92 93 89 86 82 81 77 72 67 64 61 58 56 53 50 49 46 44 41
5 5 5 5 6 6 7 8 10 9 10 10 11 11 13 14 16 17 18 19 18 21 32 49 64 69 82 93 95 98 100 97 96 97 96 94 93 94 93 92 92 89 84 75 66 62 62 58 54 50 47 44 42 41
4 4 4 4 4 4 5 7 7 7 8 9 9 10 10 10 11 13 14 14 14 15 17 19 26 41 50 59 72 81 84 90 92 92 94 97 97 96 93 92 89 88 86 80 75 67 60 60 56 50 46 42 39 38
3 3 3 3 3 3 3 4 5 5 6 6 7 7 9 9 10 11 12 12 12 12 13 14 16 20 25 35 47 56 69 78 84 85 88 91 95 95 94 93 90 87 84 85 85 78 63 59 56 50 44 38 35 34

GFSWCAN_250_rhum_174.txt.gz
RH
2 2 2 3 3 4 4 4 4 4 4 4 5 5 6 6 6 6 6 7 6 6 5 5 5 5 6 7 8 9 8 9 8 8 9 10 8 9 9 10 11 14 17 17 17 14 13 13 14 13 13 11 11 12
2 2 2 2 2 3 4 4 4 4 4 4 4 5 5 6 6 6 6 6 6 6 7 8 7 6 5 5 6 6 8 8 7 10 11 10 8 10 9 10 10 13 14 16 18 18 15 14 13 12 11 12 12 14
2 2 2 2 2 2 2 3 3 3 3 4 4 4 5 5 6 6 6 6 6 7 7 8 8 7 6 5 5 5 6 6 6 9 10 10 9 9 10 12 11 15 15 14 15 24 16 19 16 13 9 12 13 14
2 2 2 2 3 3 3 3 3 3 3 4 4 4 4 4 5 6 6 6 6 7 8 8 7 7 7 7 7 6 5 6 6 7 8 9 9 8 12 12 14 14 14 15 15 13 11 16 16 16 14 12 13 17
2 2 2 2 2 2 3 3 4 4 4 4 5 5 5 5 5 6 6 7 7 8 8 6 6 7 8 7 7 7 7 6 6 6 7 7 7 9 12 11 15 14 16 16 12 20 15 16 16 17 17 20 21 19
2 2 2 2 2 2 2 3 4 4 4 4 5 5 5 5 5 5 7 8 6 7 8 7 6 6 7 8 8 7 7 6 6 6 6 6 7 9 11 14 14 17 15 15 14 15 19 17 18 21 21 23 21 18
2 2 2 2 2 2 2 2 3 3 3 3 4 3 3 4 4 3 4 4 4 4 6 6 5 5 6 8 7 6 6 6 6 7 7 7 8 8 11 15 14 15 16 16 16 18 20 20 20 22 20 22 22 19
2 2 2 2 2 2 3 3 3 3 3 3 3 3 4 4 4 4 5 4 4 4 4 4 4 4 6 6 5 5 5 6 7 7 7 7 7 7 15 18 16 17 18 17 17 19 19 19 20 20 21 20 26 28
3 2 2 2 2 3 3 3 3 3 4 3 4 4 4 4 4 4 4 4 4 4 4 4 4 5 5 4 4 4 4 6 6 7 6 7 7 26 27 16 17 15 16 17 17 19 18 20 25 24 20 23 25 22
4 3 3 3 2 3 3 4 4 4 4 4 4 4 4 4 4 4 4 4 4 4 4 4 4 5 4 4 6 6 6 6 5 6 7 10 12 14 12 13 13 13 14 16 21 24 23 22 23 27 26 21 19 18
4 4 4 4 3 3 3 3 4 4 4 4 5 4 4 4 4 4 4 4 4 4 4 4 4 5 5 5 5 5 6 7 7 7 9 10 10 12 11 14 14 16 18 20 23 24 26 22 24 21 19 20 17 15
5 4 4 4 4 4 3 3 4 4 4 4 5 5 5 5 5 5 5 4 4 4 5 5 5 5 5 5 6 6 7 8 8 10 11 10 10 12 14 15 18 19 18 20 22 22 29 31 24 20 20 20 16 12
14 8 6 5 5 5 5 5 5 4 5 5 5 5 5 5 5 5 5 5 5 5 5 5 6 6 6 6 6 7 8 9 9 11 12 12 14 16 16 18 20 22 22 30 31 27 27 25 21 18 18 15 14 15
15 19 16 10 7 6 6 6 6 7 6 6 5 6 6 7 6 6 6 6 6 6 6 6 7 8 9 8 8 9 8 9 13 14 12 12 16 21 25 27 28 28 28 28 27 26 26 23 20 18 16 14 13 12
21 16 18 22 21 15 10 8 7 7 6 7 7 6 6 6 7 7 8 8 8 8 9 9 10 10 13 12 12 12 12 14 16 17 18 19 21 23 26 26 25 24 23 23 24 26 28 25 19 18 18 16 14 14
41 34 25 19 22 27 27 23 16 12 10 9 10 10 10 9 9 9 9 10 10 11 11 11 13 14 15 18 18 19 17 17 16 18 18 18 20 22 24 24 25 25 27 25 23 20 19 19 22 23 19 16 14 13
54 53 48 39 28 22 24 31 33 33 28 20 15 11 11 11 11 11 12 12 11 11 11 11 13 12 13 14 13 14 13 16 16 17 17 18 19 19 19 19 18 17 16 16 17 17 19 20 21 18 15 15 14 13
37 50 61 61 56 42 32 25 26 34 38 40 38 35 27 22 18 14 13 13 13 13 13 12 13 13 15 16 17 18 18 17 18 18 19 19 19 19 19 20 20 18 18 17 17 17 17 17 16 15 15 15 14 14
43 40 45 58 68 71 70 52 38 27 26 34 42 44 42 40 38 36 32 26 22 20 18 17 16 15 15 16 17 17 17 17 16 16 16 16 17 16 15 15 14 14 14 15 16 16 16 15 14 15 15 16 16 15
32 38 43 44 48 64 75 82 75 58 42 31 24 26 31 38 45 46 44 42 40 40 38 36 35 32 29 29 28 26 25 24 23 21 20 18 17 17 17 16 16 14 14 14 15 16 16 17 17 17 17 19 19 18
27 29 32 36 45 50 57 72 80 85 85 65 48 37 30 27 25 25 31 40 48 49 49 47 45 42 43 45 46 46 47 44 44 43 43 41 36 32 33 34 31 27 27 27 28 29 29 31 31 32 37 38 38 38
17 20 27 27 33 40 43 44 59 74 83 84 81 67 54 45 38 33 29 27 26 28 34 40 45 47 48 47 46 43 42 43 45 46 46 47 46 46 45 42 41 40 40 39 38 38 39 39 41 47 48 49 50 52
15 16 18 20 25 28 31 36 41 46 59 69 80 85 84 75 60 50 46 40 36 34 31 30 29 30 35 42 46 48 50 50 51 50 50 52 53 52 52 51 50 50 48 47 46 45 46 48 52 54 53 53 54 55
13 14 15 17 19 20 22 26 29 33 40 49 61 71 78 83 84 83 68 56 52 47 42 36 33 30 28 27 26 25 24 24 26 27 30 33 35 35 37 38 39 38 36 36 37 38 39 41 41 40 39 40 41 41
12 12 13 14 16 18 18 19 23 28 30 33 41 51 61 75 80 88 95 90 82 74 59 50 46 42 37 32 30 29 27 26 26 25 24 25 25 25 26 27 27 28 28 28 29 30 30 30 30 31 32 32 33 33
10 11 11 11 12 13 15 16 18 20 23 27 29 30 35 47 65 81 92 92 100 94 95 91 76 64 58 51 44 41 38 36 34 33 32 32 31 31 31 31 32 32 32 32 33 34 35 35 36 36 36 36 36 36
9 9 10 10 10 12 12 14 15 16 17 19 20 21 24 26 28 37 47 84 95 94 86 91 96 93 90 85 77 68 59 54 51 49 48 47 46 46 46 47 48 48 48 49 50 51 52 52 51 52 52 52 51 49
7 7 8 10 10 10 10 11 12 14 15 16 15 16 19 22 24 25 28 34 42 66 78 78 82 88 90 92 92 90 84 79 76 71 67 65 65 65 67 67 66 66 66 65 63 62 61 60 59 58 56 55 53 50
6 6 6 7 8 8 9 10 10 11 13 12 13 14 15 16 17 20 21 23 27 33 43 60 67 70 81 85 89 92 91 93 96 93 89 84 82 82 80 81 83 83 81 79 77 72 69 67 65 64 62 59 55 52
6 7 6 5 6 6 6 8 8 9 10 10 11 12 13 14 14 15 16 18 19 21 24 26 31 42 56 66 72 75 80 85 88 95 100 100 99 96 93 92 93 94 93 92 92 91 88 84 78 72 69 66 64 60
5 5 5 5 4 4 5 6 7 8 7 7 8 8 9 11 12 12 13 14 14 15 15 16 19 23 25 33 51 64 68 69 74 82 85 89 93 96 97 98 98 97 96 95 93 92 92 94 95 93 87 76 69 66
4 4 3 3 3 3 3 4 4 5 5 6 7 7 7 7 8 12 11 12 12 12 13 13 13 14 16 18 20 24 33 45 56 64 72 76 81 84 88 91 93 95 94 94 92 90 93 96 96 95 93 83 68 61
2 2 2 2 2 2 2 2 2 3 3 4 4 5 5 5 8 10 8 8 8 8 10 11 11 11 12 14 16 17 18 19 23 33 50 59 65 70 75 79 82 86 89 89 86 87 91 95 92 89 90 85 74 60